SFJ421 ROAH-VHHH

Flight info

Callsign SFJ421
Flight time N/A
Altitude 34000
Route GANJU Y576 LILRA Y573 SEDKU R595 APU A1 ELATO V522 ABBEY
Aircraft A320/M-SDE3FGHIRWY/LB1

Departure

Time 2026-05-07 08:44
Airport Naha International Airport (ROAH)

Arrival

Time N/A
Airport Hong Kong International Airport (VHHH)
Time Latitude Longitude Altitude Speed Heading
2026-05-07 08:36 26.20444 127.64869 21 ft 0 kts 47°
2026-05-07 08:36 26.20442 127.64866 21 ft 2 kts 47°
2026-05-07 08:36 26.20431 127.64853 24 ft 2 kts 47°
2026-05-07 08:36 26.20420 127.64839 21 ft 2 kts 47°
2026-05-07 08:37 26.20409 127.64826 20 ft 2 kts 47°
2026-05-07 08:37 26.20398 127.64813 22 ft 2 kts 45°
2026-05-07 08:37 26.20383 127.64806 19 ft 2 kts 351°
2026-05-07 08:37 26.20368 127.64811 21 ft 2 kts 332°
2026-05-07 08:38 26.20354 127.64821 22 ft 2 kts 289°
2026-05-07 08:38 26.20352 127.64829 22 ft 0 kts 267°
2026-05-07 08:39 26.20352 127.64827 22 ft 1 kts 267°
2026-05-07 08:40 26.20352 127.64826 22 ft 0 kts 267°
2026-05-07 08:40 26.20356 127.64809 21 ft 5 kts 287°
2026-05-07 08:40 26.20379 127.64770 18 ft 8 kts 318°
2026-05-07 08:40 26.20430 127.64753 18 ft 7 kts
2026-05-07 08:41 26.20477 127.64753 18 ft 7 kts 357°
2026-05-07 08:41 26.20531 127.64750 17 ft 11 kts 357°
2026-05-07 08:41 26.20627 127.64745 17 ft 15 kts 358°
2026-05-07 08:41 26.20726 127.64740 17 ft 13 kts 357°
2026-05-07 08:42 26.20809 127.64736 17 ft 11 kts 358°
2026-05-07 08:42 26.20876 127.64727 19 ft 9 kts 336°
2026-05-07 08:42 26.20901 127.64671 16 ft 9 kts 272°
2026-05-07 08:42 26.20902 127.64615 16 ft 6 kts 270°
2026-05-07 08:43 26.20902 127.64581 17 ft 4 kts 270°
2026-05-07 08:43 26.20886 127.64527 19 ft 8 kts 206°
2026-05-07 08:43 26.20828 127.64526 18 ft 14 kts 178°
2026-05-07 08:43 26.20476 127.64543 19 ft 87 kts 178°
2026-05-07 08:44 26.19670 127.64581 16 ft 141 kts 178°
2026-05-07 08:44 26.18545 127.64639 139 ft 172 kts 176°
2026-05-07 08:44 26.17373 127.64709 739 ft 178 kts 178°
2026-05-07 08:44 26.16044 127.64745 1043 ft 199 kts 179°
2026-05-07 08:45 26.14609 127.64784 1307 ft 217 kts 177°
2026-05-07 08:45 26.13036 127.64864 1295 ft 235 kts 177°
2026-05-07 08:45 26.11364 127.64957 1818 ft 242 kts 177°
2026-05-07 08:45 26.09627 127.65059 2355 ft 257 kts 177°
2026-05-07 08:46 26.07812 127.65147 2878 ft 263 kts 184°
2026-05-07 08:46 26.06045 127.64633 3582 ft 266 kts 207°
2026-05-07 08:46 26.04379 127.63709 4432 ft 268 kts 208°
2026-05-07 08:46 26.02705 127.62763 5246 ft 271 kts 209°
2026-05-07 08:47 26.01019 127.61806 6067 ft 273 kts 210°
2026-05-07 08:47 25.99318 127.60838 6845 ft 275 kts 210°
2026-05-07 08:47 25.97609 127.59867 7638 ft 276 kts 211°
2026-05-07 08:47 25.96029 127.58676 8423 ft 274 kts 225°
2026-05-07 08:48 25.94754 127.57113 9222 ft 273 kts 233°
2026-05-07 08:48 25.93553 127.55466 10008 ft 274 kts 233°
2026-05-07 08:48 25.92315 127.53768 10312 ft 294 kts 233°
2026-05-07 08:48 25.90975 127.51935 10453 ft 317 kts 232°
2026-05-07 08:49 25.89553 127.49997 10833 ft 329 kts 232°
2026-05-07 08:49 25.88091 127.48012 11396 ft 334 kts 232°
2026-05-07 08:49 25.86628 127.46026 11977 ft 338 kts 232°
2026-05-07 08:49 25.85135 127.43996 12552 ft 342 kts 231°
2026-05-07 08:50 25.83627 127.41929 13105 ft 346 kts 233°
2026-05-07 08:50 25.82401 127.39624 13642 ft 350 kts 246°
2026-05-07 08:50 25.81684 127.37025 14118 ft 355 kts 259°
2026-05-07 08:50 25.81549 127.34287 14611 ft 359 kts 272°
2026-05-07 08:51 25.81812 127.31519 15124 ft 362 kts 275°
2026-05-07 08:51 25.82084 127.28738 15632 ft 364 kts 274°
2026-05-07 08:51 25.82347 127.25936 16137 ft 366 kts 274°
2026-05-07 08:51 25.82605 127.23119 16635 ft 368 kts 274°
2026-05-07 08:52 25.82863 127.20287 17132 ft 370 kts 274°
2026-05-07 08:52 25.83124 127.17432 17622 ft 372 kts 274°
2026-05-07 08:52 25.83387 127.14560 18106 ft 374 kts 274°
2026-05-07 08:52 25.83652 127.11675 18538 ft 377 kts 274°
2026-05-07 08:53 25.83921 127.08772 18949 ft 379 kts 274°
2026-05-07 08:53 25.84191 127.05846 19366 ft 380 kts 274°
2026-05-07 08:53 25.84458 127.02918 19777 ft 382 kts 274°
2026-05-07 08:53 25.84722 127.00014 20177 ft 384 kts 274°
2026-05-07 08:54 25.84992 126.97051 20584 ft 386 kts 274°
2026-05-07 08:54 25.85265 126.94079 20989 ft 388 kts 274°
2026-05-07 08:54 25.85538 126.91092 21379 ft 390 kts 274°
2026-05-07 08:54 25.85810 126.88089 21786 ft 392 kts 274°
2026-05-07 08:55 25.86081 126.85067 22183 ft 394 kts 274°
2026-05-07 08:55 25.86354 126.82024 22557 ft 396 kts 274°
2026-05-07 08:55 25.86625 126.79008 22935 ft 398 kts 274°
2026-05-07 08:55 25.86845 126.75932 23301 ft 399 kts 269°
2026-05-07 08:56 25.86606 126.72858 23636 ft 400 kts 258°
2026-05-07 08:56 25.86138 126.70833 23837 ft 402 kts 251°
2026-05-07 08:56 25.84553 126.67118 24239 ft 405 kts 241°
2026-05-07 08:56 25.83618 126.65319 24447 ft 406 kts 241°
2026-05-07 08:57 25.82211 126.62596 24754 ft 407 kts 241°
2026-05-07 08:57 25.80802 126.59855 25058 ft 409 kts 242°
2026-05-07 08:57 25.79395 126.57107 25353 ft 411 kts 242°
2026-05-07 08:57 25.77981 126.54342 25648 ft 412 kts 242°
2026-05-07 08:58 25.76560 126.51569 25946 ft 414 kts 242°
2026-05-07 08:58 25.75130 126.48784 26237 ft 416 kts 242°
2026-05-07 08:58 25.73697 126.45994 26532 ft 417 kts 242°
2026-05-07 08:58 25.72251 126.43190 26816 ft 419 kts 242°
2026-05-07 08:59 25.70801 126.40379 27095 ft 421 kts 242°
2026-05-07 08:59 25.69343 126.37552 27380 ft 423 kts 242°
2026-05-07 08:59 25.67878 126.34713 27663 ft 425 kts 242°
2026-05-07 08:59 25.66409 126.31862 27940 ft 426 kts 242°
2026-05-07 09:00 25.64936 126.29004 28217 ft 428 kts 242°
2026-05-07 09:00 25.63452 126.26134 28480 ft 430 kts 242°
2026-05-07 09:00 25.61958 126.23257 28727 ft 431 kts 242°
2026-05-07 09:00 25.60456 126.20367 28981 ft 433 kts 242°
2026-05-07 09:01 25.58962 126.17468 29222 ft 434 kts 244°
2026-05-07 09:01 25.57888 126.14356 29452 ft 433 kts 258°
2026-05-07 09:01 25.57508 126.11051 29689 ft 434 kts 265°
2026-05-07 09:01 25.57257 126.07716 29919 ft 435 kts 265°
2026-05-07 09:02 25.57017 126.04369 30130 ft 437 kts 266°
2026-05-07 09:02 25.56785 126.01000 30244 ft 441 kts 266°
2026-05-07 09:02 25.56553 125.97598 30355 ft 444 kts 266°
2026-05-07 09:02 25.56312 125.94176 30475 ft 447 kts 266°
2026-05-07 09:03 25.56065 125.90731 30590 ft 450 kts 266°
2026-05-07 09:03 25.55812 125.87270 30710 ft 453 kts 266°
2026-05-07 09:03 25.55559 125.83786 30854 ft 455 kts 266°
2026-05-07 09:03 25.55308 125.80297 31059 ft 455 kts 266°
2026-05-07 09:04 25.55056 125.76805 31300 ft 455 kts 266°
2026-05-07 09:04 25.54799 125.73311 31525 ft 455 kts 266°
2026-05-07 09:04 25.54537 125.69824 31763 ft 454 kts 266°
2026-05-07 09:04 25.54274 125.66342 32014 ft 454 kts 266°
2026-05-07 09:05 25.54015 125.62850 32256 ft 454 kts 266°
2026-05-07 09:05 25.53761 125.59418 32495 ft 453 kts 267°
2026-05-07 09:05 25.53504 125.55939 32743 ft 453 kts 267°
2026-05-07 09:05 25.53245 125.52466 32989 ft 453 kts 267°
2026-05-07 09:06 25.52985 125.48996 33227 ft 452 kts 267°
2026-05-07 09:06 25.52723 125.45522 33469 ft 452 kts 267°
2026-05-07 09:06 25.52462 125.42060 33705 ft 452 kts 267°
2026-05-07 09:06 25.52198 125.38593 33904 ft 452 kts 267°
2026-05-07 09:07 25.51669 125.31659 33958 ft 451 kts 267°
2026-05-07 09:07 25.51139 125.24731 33960 ft 451 kts 267°
2026-05-07 09:08 25.50601 125.17819 33958 ft 451 kts 267°
2026-05-07 09:08 25.50063 125.10898 33962 ft 451 kts 267°
2026-05-07 09:09 25.49519 125.03987 33959 ft 451 kts 267°
2026-05-07 09:09 25.48969 124.97132 33954 ft 437 kts 267°
2026-05-07 09:10 25.48448 124.90517 33955 ft 429 kts 267°
2026-05-07 09:10 25.47934 124.83954 33952 ft 427 kts 267°
2026-05-07 09:11 25.47413 124.77399 33958 ft 427 kts 267°
2026-05-07 09:11 25.46885 124.70861 33952 ft 427 kts 266°
2026-05-07 09:12 25.46356 124.64315 33954 ft 426 kts 266°
2026-05-07 09:12 25.45801 124.57748 33952 ft 430 kts 266°
2026-05-07 09:13 25.45242 124.51169 33951 ft 430 kts 266°
2026-05-07 09:13 25.44691 124.44582 33950 ft 429 kts 266°
2026-05-07 09:14 25.44149 124.38007 33949 ft 429 kts 266°
2026-05-07 09:14 25.43612 124.31428 33948 ft 429 kts 266°
2026-05-07 09:15 25.43079 124.24857 33948 ft 429 kts 266°
2026-05-07 09:15 25.42549 124.18277 33944 ft 429 kts 266°
2026-05-07 09:16 25.42024 124.11711 33946 ft 428 kts 266°
2026-05-07 09:16 25.41808 124.08458 33944 ft 417 kts 272°
2026-05-07 09:16 25.42061 124.05332 33916 ft 401 kts 277°
2026-05-07 09:17 25.42394 124.02309 33614 ft 393 kts 277°
2026-05-07 09:17 25.42720 123.99311 33086 ft 391 kts 277°
2026-05-07 09:17 25.43041 123.96325 32477 ft 391 kts 277°
2026-05-07 09:17 25.43364 123.93330 31840 ft 392 kts 277°
2026-05-07 09:18 25.43686 123.90369 31210 ft 394 kts 277°
2026-05-07 09:18 25.44016 123.87352 30576 ft 396 kts 276°
2026-05-07 09:18 25.44349 123.84325 29921 ft 397 kts 276°
2026-05-07 09:18 25.44683 123.81281 29312 ft 396 kts 276°
2026-05-07 09:19 25.45006 123.78303 29174 ft 383 kts 276°
2026-05-07 09:19 25.45315 123.75427 29000 ft 371 kts 276°
2026-05-07 09:19 25.45617 123.72615 28639 ft 365 kts 276°
2026-05-07 09:19 25.45915 123.69833 28202 ft 362 kts 276°
2026-05-07 09:20 25.46212 123.67069 27741 ft 359 kts 276°
2026-05-07 09:20 25.46508 123.64333 27280 ft 357 kts 276°
2026-05-07 09:20 25.46803 123.61612 26827 ft 355 kts 276°
2026-05-07 09:20 25.47095 123.58906 26379 ft 353 kts 276°
2026-05-07 09:21 25.47384 123.56207 25939 ft 351 kts 276°
2026-05-07 09:21 25.47668 123.53526 25510 ft 350 kts 276°
2026-05-07 09:21 25.47950 123.50861 25086 ft 348 kts 276°
2026-05-07 09:21 25.48227 123.48242 24676 ft 346 kts 276°
2026-05-07 09:22 25.48503 123.45598 24262 ft 345 kts 275°
2026-05-07 09:22 25.48778 123.42970 23854 ft 343 kts 275°
2026-05-07 09:22 25.49054 123.40346 23435 ft 342 kts 275°
2026-05-07 09:22 25.49332 123.37736 22985 ft 340 kts 275°
2026-05-07 09:23 25.49609 123.35143 22555 ft 338 kts 275°
2026-05-07 09:23 25.49882 123.32569 22147 ft 336 kts 275°
2026-05-07 09:23 25.50150 123.30008 21736 ft 334 kts 275°
2026-05-07 09:23 25.50413 123.27486 21341 ft 331 kts 275°
2026-05-07 09:24 25.50676 123.24959 20950 ft 329 kts 275°
2026-05-07 09:24 25.50905 123.22769 20612 ft 328 kts 275°
2026-05-07 09:24 25.51141 123.20512 20278 ft 326 kts 275°
2026-05-07 09:24 25.51401 123.18019 19902 ft 324 kts 275°
2026-05-07 09:25 25.51658 123.15539 19546 ft 322 kts 275°
2026-05-07 09:25 25.51883 123.13382 19230 ft 320 kts 275°
2026-05-07 09:25 25.52146 123.10849 18872 ft 319 kts 275°
2026-05-07 09:25 25.52398 123.08420 18534 ft 317 kts 275°
2026-05-07 09:26 25.52648 123.06005 18198 ft 315 kts 275°
2026-05-07 09:26 25.52897 123.03598 17826 ft 313 kts 275°
2026-05-07 09:26 25.53144 123.01208 17461 ft 312 kts 275°
2026-05-07 09:26 25.53388 122.98831 17113 ft 310 kts 275°
2026-05-07 09:27 25.53629 122.96470 16768 ft 308 kts 275°
2026-05-07 09:27 25.53868 122.94121 16436 ft 306 kts 275°
2026-05-07 09:27 25.54344 122.89455 15553 ft 310 kts 275°
2026-05-07 09:28 25.54593 122.86990 14729 ft 325 kts 276°
2026-05-07 09:28 25.54844 122.84512 14207 ft 329 kts 276°
2026-05-07 09:28 25.55101 122.81980 13479 ft 337 kts 276°
2026-05-07 09:28 25.55368 122.79358 12672 ft 345 kts 276°
2026-05-07 09:29 25.55638 122.76712 12111 ft 345 kts 276°
2026-05-07 09:29 25.55906 122.74080 11604 ft 343 kts 276°
2026-05-07 09:29 25.56168 122.71460 11109 ft 341 kts 275°
2026-05-07 09:29 25.56429 122.68857 10619 ft 339 kts 275°
2026-05-07 09:30 25.56689 122.66270 10140 ft 337 kts 275°
2026-05-07 09:30 25.56948 122.63699 9650 ft 335 kts 275°
2026-05-07 09:30 25.57206 122.61143 9121 ft 333 kts 275°
2026-05-07 09:30 25.57461 122.58600 8582 ft 332 kts 275°
2026-05-07 09:31 25.57713 122.56068 8055 ft 330 kts 275°
2026-05-07 09:31 25.57961 122.53544 7648 ft 329 kts 275°
2026-05-07 09:31 25.58210 122.51017 7559 ft 331 kts 275°
2026-05-07 09:31 25.58460 122.48482 7513 ft 331 kts 275°
2026-05-07 09:32 25.58712 122.45948 7463 ft 331 kts 275°
2026-05-07 09:32 25.58967 122.43404 7417 ft 331 kts 275°
2026-05-07 09:32 25.59180 122.40870 7369 ft 329 kts 269°
2026-05-07 09:32 25.58964 122.38413 7315 ft 311 kts 262°
2026-05-07 09:33 25.58680 122.36091 7265 ft 295 kts 261°
2026-05-07 09:33 25.58408 122.33898 7220 ft 280 kts 261°
2026-05-07 09:33 25.58147 122.31789 7166 ft 274 kts 261°
2026-05-07 09:33 25.57888 122.29704 7135 ft 272 kts 261°
2026-05-07 09:34 25.57629 122.27628 7114 ft 272 kts 261°
2026-05-07 09:34 25.57373 122.25583 7092 ft 272 kts 261°
2026-05-07 09:34 25.57114 122.23512 7074 ft 271 kts 261°
2026-05-07 09:34 25.56855 122.21442 7045 ft 271 kts 261°
2026-05-07 09:35 25.56598 122.19378 7022 ft 271 kts 261°
2026-05-07 09:35 25.56338 122.17313 6998 ft 271 kts 261°
2026-05-07 09:35 25.56075 122.15252 6973 ft 270 kts 261°
2026-05-07 09:35 25.55899 122.13859 6958 ft 270 kts 261°
2026-05-07 09:36 25.55635 122.11765 7145 ft 284 kts 261°
2026-05-07 09:36 25.55349 122.09519 7469 ft 306 kts 261°
2026-05-07 09:36 25.55045 122.07135 7799 ft 324 kts 261°
2026-05-07 09:36 25.54726 122.04633 8466 ft 330 kts 261°
2026-05-07 09:37 25.54396 122.02044 8765 ft 348 kts 261°
2026-05-07 09:37 25.54058 121.99361 9313 ft 355 kts 261°
2026-05-07 09:37 25.53716 121.96642 9845 ft 358 kts 261°
2026-05-07 09:37 25.53371 121.93909 9980 ft 358 kts 261°
2026-05-07 09:38 25.53026 121.91178 10013 ft 358 kts 261°
2026-05-07 09:38 25.52681 121.88453 10019 ft 357 kts 261°
2026-05-07 09:38 25.52332 121.85731 10012 ft 357 kts 261°
2026-05-07 09:38 25.51980 121.83005 10018 ft 358 kts 261°
2026-05-07 09:39 25.51631 121.80281 10012 ft 358 kts 261°
2026-05-07 09:39 25.51278 121.77521 10013 ft 372 kts 261°
2026-05-07 09:39 25.50908 121.74635 9999 ft 383 kts 261°
2026-05-07 09:39 25.50531 121.71708 10006 ft 385 kts 261°
2026-05-07 09:40 25.50151 121.68774 10011 ft 385 kts 261°
2026-05-07 09:40 25.49770 121.65838 9998 ft 386 kts 261°
2026-05-07 09:40 25.49386 121.62893 10010 ft 386 kts 261°
2026-05-07 09:40 25.48956 121.59965 10007 ft 386 kts 256°
2026-05-07 09:41 25.48042 121.57221 10004 ft 386 kts 243°
2026-05-07 09:41 25.46534 121.54760 10002 ft 388 kts 231°
2026-05-07 09:41 25.44766 121.52500 9999 ft 388 kts 230°
2026-05-07 09:41 25.43012 121.50265 9991 ft 376 kts 230°
2026-05-07 09:42 25.41349 121.48143 10002 ft 354 kts 230°
2026-05-07 09:42 25.39784 121.46139 10005 ft 334 kts 230°
2026-05-07 09:42 25.38304 121.44242 9997 ft 317 kts 230°
2026-05-07 09:42 25.36900 121.42444 9998 ft 300 kts 230°
2026-05-07 09:43 25.35564 121.40737 9948 ft 288 kts 230°
2026-05-07 09:43 25.34274 121.39089 9767 ft 280 kts 230°
2026-05-07 09:43 25.33004 121.37468 9450 ft 277 kts 230°
2026-05-07 09:43 25.31744 121.35863 9102 ft 275 kts 230°
2026-05-07 09:44 25.30491 121.34269 8749 ft 274 kts 230°
2026-05-07 09:44 25.29246 121.32686 8404 ft 272 kts 230°
2026-05-07 09:44 25.28029 121.31132 8075 ft 270 kts 230°
2026-05-07 09:44 25.26802 121.29563 7726 ft 268 kts 230°
2026-05-07 09:45 25.25583 121.28007 7380 ft 266 kts 230°
2026-05-07 09:45 25.24374 121.26466 7040 ft 264 kts 229°
2026-05-07 09:45 25.23172 121.24937 6725 ft 261 kts 229°
2026-05-07 09:45 25.22007 121.23458 6607 ft 250 kts 229°
2026-05-07 09:46 25.20890 121.22038 6495 ft 239 kts 229°
2026-05-07 09:46 25.19823 121.20682 6344 ft 230 kts 229°
2026-05-07 09:46 25.18783 121.19360 6054 ft 227 kts 229°
2026-05-07 09:46 25.17748 121.18043 5697 ft 227 kts 229°
2026-05-07 09:47 25.16710 121.16723 5345 ft 228 kts 229°
2026-05-07 09:47 25.15668 121.15398 4990 ft 229 kts 230°
2026-05-07 09:47 25.14622 121.14068 4638 ft 230 kts 230°
2026-05-07 09:47 25.13587 121.12755 4296 ft 230 kts 230°
2026-05-07 09:48 25.12531 121.11413 4060 ft 228 kts 230°
2026-05-07 09:48 25.11501 121.10105 4032 ft 230 kts 230°
2026-05-07 09:48 25.10451 121.08774 4030 ft 230 kts 230°
2026-05-07 09:48 25.09403 121.07442 4026 ft 230 kts 230°
2026-05-07 09:49 25.08355 121.06109 4021 ft 230 kts 230°
2026-05-07 09:49 25.07305 121.04775 4021 ft 230 kts 230°
2026-05-07 09:49 25.06251 121.03439 4022 ft 231 kts 230°
2026-05-07 09:49 25.05199 121.02104 4017 ft 230 kts 230°
2026-05-07 09:50 25.04150 121.00771 4016 ft 230 kts 230°
2026-05-07 09:50 25.03100 120.99436 4018 ft 230 kts 230°
2026-05-07 09:50 25.02055 120.98103 4013 ft 229 kts 230°
2026-05-07 09:50 25.01011 120.96770 4025 ft 230 kts 230°
2026-05-07 09:51 24.99968 120.95438 4022 ft 229 kts 230°
2026-05-07 09:51 24.98957 120.94151 4009 ft 217 kts 230°
2026-05-07 09:51 24.97980 120.92936 4013 ft 210 kts 223°
2026-05-07 09:51 24.96728 120.92141 4012 ft 210 kts 195°
2026-05-07 09:52 24.95273 120.92131 3877 ft 213 kts 164°
2026-05-07 09:52 24.94043 120.93003 3888 ft 216 kts 130°
2026-05-07 09:52 24.93458 120.94514 4423 ft 217 kts 95°
2026-05-07 09:52 24.93732 120.95936 5733 ft 168 kts 58°
2026-05-07 09:53 24.94555 120.96737 6436 ft 164 kts 16°
2026-05-07 09:53 24.95698 120.96760 7065 ft 161 kts 329°
2026-05-07 09:53 24.96447 120.96038 8007 ft 132 kts 286°
2026-05-07 09:53 24.96497 120.95053 8356 ft 147 kts 252°
2026-05-07 09:54 24.96119 120.94017 9197 ft 135 kts 237°
2026-05-07 09:54 24.95500 120.93270 9847 ft 138 kts 223°
2026-05-07 09:54 24.94660 120.92594 9759 ft 156 kts 216°
2026-05-07 09:54 24.93934 120.91689 9108 ft 167 kts 250°
2026-05-07 09:55 24.93714 120.90391 8373 ft 177 kts 254°
2026-05-07 09:55 24.92949 120.89328 7586 ft 191 kts 205°
2026-05-07 09:55 24.91599 120.89286 6897 ft 209 kts 158°
2026-05-07 09:55 24.90498 120.90378 6166 ft 223 kts 129°
2026-05-07 09:56 24.89662 120.92032 4650 ft 268 kts 114°
2026-05-07 09:56 24.89220 120.94118 3436 ft 290 kts 86°
2026-05-07 09:56 24.89831 120.96166 2885 ft 276 kts 58°
2026-05-07 09:56 24.90852 120.97856 2678 ft 254 kts 55°
2026-05-07 09:57 24.91799 120.99394 2566 ft 232 kts 55°
2026-05-07 09:57 24.92656 121.00789 2520 ft 207 kts 54°
2026-05-07 09:57 24.93427 121.02046 2528 ft 192 kts 55°
2026-05-07 09:57 24.94167 121.03253 2526 ft 188 kts 55°
2026-05-07 09:58 24.94813 121.04486 2515 ft 183 kts 64°
2026-05-07 09:58 24.95297 121.05755 2519 ft 178 kts 68°
2026-05-07 09:58 24.95862 121.06954 2523 ft 175 kts 53°
2026-05-07 09:58 24.96614 121.08012 2518 ft 176 kts 49°
2026-05-07 09:59 24.97402 121.09042 2523 ft 176 kts 48°
2026-05-07 09:59 24.98198 121.10060 2526 ft 175 kts 48°
2026-05-07 09:59 24.98998 121.11077 2428 ft 176 kts 48°
2026-05-07 09:59 24.99785 121.12075 2244 ft 168 kts 48°
2026-05-07 10:00 25.00536 121.13029 2050 ft 162 kts 48°
2026-05-07 10:00 25.01272 121.13961 1841 ft 160 kts 49°
2026-05-07 10:00 25.01983 121.14864 1655 ft 153 kts 49°
2026-05-07 10:00 25.02673 121.15738 1447 ft 149 kts 49°
2026-05-07 10:01 25.03351 121.16598 1260 ft 148 kts 49°
2026-05-07 10:01 25.04020 121.17447 1075 ft 146 kts 48°
2026-05-07 10:01 25.04687 121.18292 886 ft 146 kts 49°
2026-05-07 10:01 25.05345 121.19137 694 ft 147 kts 47°
2026-05-07 10:02 25.06008 121.19974 512 ft 143 kts 47°
2026-05-07 10:02 25.06663 121.20804 320 ft 143 kts 47°
2026-05-07 10:02 25.07307 121.21623 119 ft 141 kts 47°
2026-05-07 10:02 25.07900 121.22379 83 ft 102 kts 47°
2026-05-07 10:03 25.08188 121.22738 73 ft 42 kts 48°
2026-05-07 10:03 25.08365 121.22967 71 ft 33 kts 54°
2026-05-07 10:03 25.08436 121.23150 76 ft 23 kts 76°
2026-05-07 10:03 25.08462 121.23279 74 ft 14 kts 81°
2026-05-07 10:04 25.08407 121.23323 73 ft 10 kts 194°
2026-05-07 10:04 25.08358 121.23280 74 ft 8 kts 228°
2026-05-07 10:04 25.08314 121.23221 66 ft 10 kts 231°
2026-05-07 10:04 25.08272 121.23166 77 ft 9 kts 228°
2026-05-07 10:05 25.08234 121.23123 78 ft 7 kts 217°
2026-05-07 10:05 25.08180 121.23140 74 ft 10 kts 134°
2026-05-07 10:05 25.08126 121.23151 81 ft 7 kts 175°
2026-05-07 10:05 25.08097 121.23169 84 ft 4 kts 146°
2026-05-07 10:06 25.08085 121.23179 82 ft 1 kts 142°
2026-05-07 10:06 25.08078 121.23185 82 ft 0 kts 139°
2026-05-07 10:06 25.08056 121.23206 85 ft 6 kts 138°
2026-05-07 10:06 25.08032 121.23230 87 ft 3 kts 139°